Showing default

PICO-01A003, 58326

Orbit data source: Space-Track

PICO-01A003, 58326 is a payload satellite owned by Apogeo Space (IT) in SSO that was launched on Sat, 11 Nov 2023 UTC via an FALCON 9 launch vehicle from the Air Force Western Test Range (AFWTR). Payload-class satellites include a variety of spacecraft equipped with specific instruments for various scientific and technological missions. These include communications satellites like Starlink; space stations such as the ISS; scientific satellites like the Hubble; Earth observation satellites from companies like Planet Labs, Umbra, and HawkEye 360; GPS; miniature CubeSats for education and research; and military/defense satellites.

Loading next visibility...
Identifier
58326, 2023-174BY
Orbit
SSO
Last TLE update
7 hours ago
Origin
Manufacturer
Apogeo Space
Mission
Operational Commercial Communications
Bus & Motor
CUBESAT 0.3U, Unknown motor
Mass
0.5 kg wet, 0.5 kg dry
Launch date (UTC)
2023-11-11 (2 years ago)
Launch vehicle
FALCON 9
Launch site
Air Force Western Test Range (AFWTR)
Object type
Payload
Rocket body
Debris
Shape & HBR
Box, 0.1 m
Radar Cross Section
0.008 m², Small (<0.1 m²)

Expand to show TLE details & history

TLE from 7 hours ago
0 PICO-01A003
1 58326U 23174BY  25186.47728644  .00009975  00000-0  32644-3 0  9997
2 58326  97.4130 263.9473 0006849 336.9784  23.1150 15.31867694 92105
Epoch: 2025-07-05T11:27Z
TLE epoch observation values (Epoch: 2025-07-05T11:27:17.548Z)
Latitude
0.00002°
Longitude
168.40941°
Altitude
469.032 km
Speed
7.634 km/s
True Right ascension
17h 35m 47s
True Declination
0° 00' 00"
Sunlit
Object was in full shadow at epoch
Visualization orbit readout
Latitude
61.08843°
Longitude
2.24126°
Altitude
484.398 km
Speed
7.627 km/s
Apparent Right ascension
17h 25m 58s
Apparent Declination
49° 48' 01"
Sunlit
Object is in daylight
Visualization observer readout
Local Sidereal Time
06:09:52
Azimuth
7.058° NNE
Elevation
0.235°
Doppler factor
1
Orbital elements
Apogee altitude
471.879 km
Perigee altitude
462.502 km
Semi-major axis
6,845.327 km
Eccentricity
0.00068
Inclination
97.413°
RAAN
263.9473°
Arg. of periapsis
336.9784°
True anomaly
Unknown
Mean anomaly
23.115°
Eccentric anomaly
Unknown
Mean motion
3.83223 °/min
Orbital period
93.94 mins
BSTAR
0.00032644
Loading maneuver chart data...
Loading SW <> Apogee altitude chart data...
Loading historical data...
Loading historical data...
Loading historical data...
Loading historical data...
Loading historical data...
Loading historical data...
Loading historical data...

PICO-01A003 Visibility forecast

Observer location: undefined°, undefined°

Span
Click to sort rows by Start time (UTC) header in descending order
Start Az.
Max El. time (UTC)
Max El. Az.
Max El.
End time (UTC)
End Az.
5 mins2025-07-05 18:17:22.470Z359.477° N2025-07-05 18:19:22.470Z320.627° NNW37.867°2025-07-05 18:22:22.470Z209.517° SW
4 mins2025-07-06 04:51:22.470Z124.197° SE2025-07-06 04:52:22.470Z92.846° ESE31.813°2025-07-06 04:55:22.470Z7.797° NNE
6 mins2025-07-06 17:48:22.470Z24.893° NE2025-07-06 17:51:22.470Z119.838° SE38.086°2025-07-06 17:54:22.470Z177.759° S
|